Tracking 28125 objects as of 4-Oct-2023
HD Live streaming from Space Station
objects crossing your sky now

THORAD AGENA D DEB

Track THORAD AGENA D DEB now!
10-day predictions


NORAD ID: 21721
Int'l Code: 1970-025QG
Perigee: 1,010.2 km
Apogee: 1,017.9 km
Inclination: 100.1 °
Period: 105.3 minutes
Semi major axis: 7385 km
RCS: 0.015 m2 (small)
Launch date: April 8, 1970
Source: United States (US)
Launch site: AIR FORCE WESTERN TEST RANGE (AFWTR)

Note: This is SATELLITE DEBRIS
Your satellite tracking list
Your tracking list is empty




NASA's NSSDC Master Catalog

Two Line Element Set (TLE):
1 21721U 70025QG  23276.91806778  .00001311  00000-0  16002-2 0  9990
2 21721 100.0977 165.6651 0005192 294.2873 125.8738 13.67958106589047
Source of the keplerian elements: AFSPC